Weather History for Grand Canyon, AZ

Change the Weather History Date:

Monday, November 12, 2012

  Actual Average Record
Temperature  
Mean Temperature 24 °F -  
Max Temperature 46 °F 50 °F 71 °F (1999)
Min Temperature 3 °F 21 °F 3 °F (2000)
Degree Days  
Heating Degree Days 40    
Moisture  
Dew Point -6 °F    
Average Humidity 32    
Maximum Humidity 70    
Minimum Humidity 9    
Precipitation  
Precipitation 0.00 in - - ()
Sea Level Pressure  
Sea Level Pressure 30.43 in    
Wind  
Wind Speed 5 mph (East)    
Max Wind Speed 15 mph    
Max Gust Speed 21 mph    
Visibility 10 miles    
Events      
Averages and records for this station are not official NWS values.
T = Trace of Precipitation, MM = Missing Value Source: NWS Daily Summary

Daily Weather History Graph

Daily Weather History Graph

Search for Another Location

Airport:

Trip Planner

Search our weather history database for the weather conditions in past years. The results will help you decide how hot, cold, wet, or windy it might be!

Date:

Astronomy

Nov. 12, 2012 Rise Set
Actual Time 7:02 AM MST 5:22 PM MST
Civil Twilight 6:35 AM MST 5:49 PM MST
Nautical Twilight 6:04 AM MST 6:20 PM MST
Astronomical Twilight 5:34 AM MST 6:50 PM MST
Moon 5:33 AM MST (11/12) 4:29 PM MST (11/12)
Length of Visible Light 11h 14m
Length of Day
10h 20m
Waning Crescent, 2% of the Moon is Illuminated
Nov 12
Waning Crescent
Nov 13
New
Nov 20
First Quarter
Nov 28
Full
Dec 6
Last Quarter

Hourly Weather History & Observations

Time (MST) Temp. Windchill Dew Point Humidity Pressure Visibility Wind Dir Wind Speed Gust Speed Precip Events Conditions
12:54 AM 8.1 °F - -2.9 °F 61% 30.48 in 10.0 mi Calm Calm - N/A   Clear
1:54 AM 8.1 °F 1.4 °F -2.9 °F 61% 30.48 in 10.0 mi SE 3.5 mph - N/A   Clear
2:54 AM 3.9 °F -3.4 °F -4.0 °F 70% 30.49 in 10.0 mi NE 3.5 mph - N/A   Clear
3:54 AM 9.0 °F -3.2 °F -0.9 °F 64% 30.45 in 10.0 mi NE 8.1 mph - N/A   Clear
4:54 AM 6.1 °F -2.8 °F -2.9 °F 67% 30.47 in 10.0 mi NE 4.6 mph - N/A   Clear
5:54 AM 8.1 °F 1.4 °F -2.0 °F 64% 30.51 in 10.0 mi ENE 3.5 mph - N/A   Clear
6:54 AM 6.1 °F - -2.0 °F 69% 30.57 in 10.0 mi Calm Calm - N/A   Clear
7:54 AM 21.0 °F 14.6 °F 3.0 °F 46% 30.53 in 10.0 mi ENE 4.6 mph - N/A   Clear
8:54 AM 35.1 °F 26.9 °F -0.9 °F 22% 30.48 in 10.0 mi East 11.5 mph 20.7 mph N/A   Clear
9:54 AM 37.9 °F 30.5 °F -6.0 °F 15% 30.47 in 10.0 mi East 11.5 mph 20.7 mph N/A   Clear
10:54 AM 41.0 °F 33.9 °F -9.0 °F 12% 30.46 in 10.0 mi East 12.7 mph 20.7 mph N/A   Clear
11:54 AM 45.0 °F 38.2 °F -4.0 °F 13% 30.42 in 10.0 mi ENE 15.0 mph 20.7 mph N/A   Clear
12:54 PM 45.0 °F 40.1 °F -6.0 °F 12% 30.38 in 10.0 mi ESE 9.2 mph 19.6 mph N/A   Clear
1:54 PM 46.9 °F - -8.0 °F 10% 30.35 in 10.0 mi East 10.4 mph 18.4 mph N/A   Clear
2:54 PM 46.0 °F 41.4 °F -9.9 °F 9% 30.37 in 10.0 mi East 9.2 mph 20.7 mph N/A   Clear
3:54 PM 45.0 °F 39.3 °F -11.0 °F 9% 30.35 in 10.0 mi East 11.5 mph - N/A   Clear
4:54 PM 41.0 °F 34.7 °F -14.1 °F 9% 30.38 in 10.0 mi East 10.4 mph - N/A   Clear
5:54 PM 34.0 °F 28.8 °F -9.9 °F 15% 30.41 in 10.0 mi East 5.8 mph - N/A   Clear
6:54 PM 28.9 °F 25.2 °F -13.0 °F 16% 30.45 in 10.0 mi East 3.5 mph - N/A   Clear
7:54 PM 30.0 °F 26.5 °F -11.0 °F 17% 30.38 in 10.0 mi East 3.5 mph - N/A   Clear
8:54 PM 24.1 °F - -11.0 °F 21% 30.36 in 10.0 mi Calm Calm - N/A   Clear
9:54 PM 19.0 °F - -9.0 °F 29% 30.37 in 10.0 mi Calm Calm - N/A   Clear
10:54 PM 15.1 °F - -9.0 °F 34% 30.39 in 10.0 mi Calm Calm - N/A   Clear
11:54 PM 15.1 °F - -9.0 °F 34% 30.35 in 10.0 mi Calm Calm - N/A   Clear